Location: Saint Louis
(38.6272°N, 90.1978°W)
Time: 02:22:56
(UTC-05:00)

Hubble Space Telescope - Visible Passes

Search period start: 26 April 2018 00:00
Search period end: 06 May 2018 00:00
Orbit: 537 x 541 km, 28.5° (Epoch: 25 April)

Date Brightness Start Highest point End Pass type
(mag) Time Alt. Az. Time Alt. Az. Time Alt. Az.
26 Apr 3.4 21:55:58 10° SW 21:55:59 10° SW 21:55:59 10° SW visible
27 Apr 2.9 21:45:27 10° SW 21:46:35 15° SSW 21:46:35 15° SSW visible
28 Apr 2.6 21:35:00 10° SW 21:37:04 18° SSW 21:37:04 18° SSW visible
29 Apr 2.4 21:24:35 10° SW 21:27:28 20° S 21:27:28 20° S visible
30 Apr 2.4 21:14:12 10° SW 21:17:12 19° S 21:17:47 19° S visible
01 May 2.5 21:03:52 10° SW 21:06:47 19° S 21:08:03 16° SSE visible
02 May 2.6 20:53:35 10° SW 20:56:22 18° S 20:58:17 13° SSE visible
03 May 2.8 20:43:21 10° SW 20:45:57 16° S 20:48:30 10° SSE visible
04 May 2.9 20:33:13 10° SW 20:35:30 14° SSW 20:37:48 10° SSE visible
05 May 3.1 20:23:13 10° SW 20:25:04 13° SSW 20:26:54 10° S visible
